This is the latest recevied weather packets stored in our database for station/object N7NMS-13. If no packets are shown the sender has not sent any weather packets the latest 10 day(s).
| Time | Temp. | Humidity | Pressure | Rain* | Wind** | Luminosity | Snow |
|---|---|---|---|---|---|---|---|
| 1777665436 | 15.56° C | 46% | - | 0 mm | - | - | - |
| 1777664836 | 15.56° C | 46% | - | 0 mm | - | - | - |
| 1777664206 | 15.56° C | 45% | - | 0 mm | - | - | - |
| 1777663606 | 15.56° C | 45% | - | 0 mm | - | - | - |
| 1777662976 | 15.56° C | 45% | - | 0 mm | - | - | - |
| 1777662346 | 16.67° C | 45% | - | 0 mm | - | - | - |
| 1777661746 | 17.22° C | 41% | - | 0 mm | - | - | - |
| 1777661146 | 16.67° C | 43% | - | 0 mm | - | - | - |
| 1777660516 | 16.11° C | 46% | - | 0 mm | - | - | - |
| 1777659916 | 15.56° C | 46% | - | 0 mm | - | - | - |
| 1777659286 | 15.56° C | 45% | - | 0 mm | - | - | - |
| 1777658056 | 15.56° C | 46% | - | 0 mm | - | - | - |
| 1777655656 | 15.56° C | 44% | - | 0 mm | - | - | - |
| 1777655056 | 15.56° C | 47% | - | 0 mm | - | - | - |
| 1777652596 | 13.89° C | 51% | - | 0 mm | - | - | - |
| 1777651966 | 12.78° C | 53% | - | 0 mm | - | - | - |
| 1777651366 | 12.78° C | 55% | - | 0 mm | - | - | - |
| 1777650766 | 12.78° C | 62% | - | 0 mm | - | - | - |
| 1777650166 | 12.22° C | 62% | - | 0 mm | - | - | - |
| 1777649566 | 12.78° C | 61% | - | 0 mm | - | - | - |
| 1777648966 | 12.22° C | 63% | - | 0 mm | - | - | - |
| 1777648366 | 12.22° C | 63% | - | 0 mm | - | - | - |
| 1777647766 | 12.22° C | 68% | - | 0 mm | - | - | - |
| 1777647166 | 12.22° C | 65% | - | 0 mm | - | - | - |
| 1777645966 | 11.11° C | 70% | - | 0 mm | - | - | - |
* Rain latest hour (hover to see other rain measurements)
** Current wind speed in m/s (hover to see current wind gust speed)